Simultaneous Nadir Overpasses (SNOs) Predictions

Prediction of SNOs between GOES-14 and NOAA-20 Satellite Orbit:

Table of predicted SNOs for the next 14.0 days since TLE Epoch: 10/15/2022
Index Date Time (GOES-14) GOES-14 Lat,Lon NOAA-20 Lat,Lon Distance(km) Time Diff (sec)
1 10/16/2022 08:26:31 0.20,-104.36 0.38,-105.03 78.14 80
2 10/17/2022 08:05:07 0.22,-104.33 -0.64,-100.51 436.38 80
3 10/18/2022 20:27:03 -0.19,-104.26 -0.55,-105.81 177.38 80
4 10/19/2022 20:10:59 -0.20,-104.26 0.49,-101.28 340.00 80
5 10/21/2022 08:32:47 0.16,-104.35 0.63,-106.56 251.59 80
6 10/22/2022 08:11:21 0.18,-104.33 -0.34,-102.02 263.25 80
7 10/23/2022 20:33:18 -0.15,-104.21 -0.84,-107.33 355.05 80
8 10/24/2022 20:17:12 -0.16,-104.22 0.14,-102.79 162.55 80
9 10/26/2022 08:39:00 0.13,-104.35 0.98,-108.07 424.20 80
10 10/27/2022 08:17:35 0.16,-104.33 0.00,-103.53 90.49 80
